Regional Weather Roundup
Issued by NWS Sterling, VA

Home | Current Version | Previous Version | Graphics & Text | Print | Product List | Glossary On
Versions: 1 2 3 4 5 6 7 8 9 10 11 12 13 14 15 16 17 18 19 20 21 22 23 24 25 26 27 28
000
ASUS41 KLWX 190710
RWRLWX

REGIONAL WEATHER ROUNDUP
NATIONAL WEATHER SERVICE BALTIMORE MD/WASHINGTON DC
300 AM EDT SAT APR 19 2014

Note: "FAIR" indicates few or no clouds below 12,000 feet
with no significant weather and/or obstructions to visibility.
 TC=TEMPERATURE CELSIUS

 * =Non NWS site. Station does not report precipitation (e.g. rain,
    snow, etc.), thunder, or fog.

DCZ001-MDZ009-015-VAZ040>042-051-053>054-190800-
WASHINGTON METRO

CITY           SKY/WX    TMP DP  RH WIND       PRES   REMARKS
WASHINGTON NAT CLOUDY    48  38  68 S6        30.26F
DULLES         CLOUDY    41  36  82 CALM      30.25F
ANDREWS AFB    CLOUDY    42  37  82 S3        30.24F
FT BELVOIR     CLOUDY    41  39  90 CALM      30.25F
QUANTICO       CLOUDY    45  39  79 NW6       30.26F
COLLEGE PARK*  CLOUDY    43  37  81 CALM      30.25F
LEESBURG*      CLOUDY    45  37  76 CALM      30.26S
MANASSAS*      CLOUDY    43  41  93 CALM      30.25F
GAITHERSBURG*  CLOUDY    41  36  81 CALM      30.27F

$$

MDZ006>007-011-014-190800-
BALTIMORE METRO

CITY           SKY/WX    TMP DP  RH WIND       PRES   REMARKS
BWI AIRPORT    CLOUDY    43  36  76 CALM      30.24F
MD SCIENCE CTR   N/A     47  36  65 MISG      30.26F
MARTIN STATE   CLOUDY    41  37  87 CALM      30.27F
ANNAPOLIS      CLOUDY    45  39  79 CALM      30.25F
FORT MEADE*    CLOUDY    37  36  93 CALM      30.27F

$$

MDZ012-015-019>023-190800-
MARYLAND EASTERN SHORE

CITY           SKY/WX    TMP DP  RH WIND       PRES   REMARKS
OCEAN CITY     CLOUDY    43  40  89 N5        30.26F
SALISBURY      CLOUDY    44  40  85 CALM      30.26F
BAY BRIDGE AP* CLOUDY    45  43  93 CALM      30.25F
CAMBRIDGE*     CLOUDY    45  39  81 CALM      30.25F
EASTON*        CLOUDY    46  43  91 CALM      30.29F

$$

MDZ017>025-190800-
SOUTHERN MARYLAND

CITY           SKY/WX    TMP DP  RH WIND       PRES   REMARKS
PATUXENT RIVER CLOUDY    44  40  85 CALM      30.25F
ST INIGOES     CLOUDY    46  42  86 CALM      30.24F
LEONARDTOWN*   CLOUDY    43  39  87 CALM      30.26F

$$

MDZ003>005-190800-
NORTH CENTRAL MARYLAND

CITY           SKY/WX    TMP DP  RH WIND       PRES   REMARKS
FREDERICK*     CLOUDY    39  39 100 CALM      30.28S
HAGERSTOWN APT CLOUDY    44  34  67 CALM      30.24S
WESTMINSTER*   CLOUDY    45  36  70 CALM      30.24S

$$

MDZ501>502-190800-
WESTERN MARYLAND

CITY           SKY/WX    TMP DP  RH WIND       PRES   REMARKS
OAKLAND*       CLOUDY    50  23  34 N3        30.22S
CUMBERLAND*    CLOUDY    43  37  81 CALM      30.27F

$$

VAZ025>031-190800-
SHENANDOAH VALLEY

CITY           SKY/WX    TMP DP  RH WIND       PRES   REMARKS
WINCHESTER*    CLOUDY    43  36  75 CALM      30.23S
STAUNTON*      CLOUDY    42  38  84 CALM      30.23F

$$

WVZ021-048>050-054>055-190800-
EASTERN WEST VIRGINIA PANHANDLE

CITY           SKY/WX    TMP DP  RH WIND       PRES   REMARKS
MARTINSBURG    CLOUDY    42  35  76 CALM      30.23F
PETERSBURG*    CLOUDY    47  43  84 CALM      30.25R

$$

VAZ036>039-050-190800-
CENTRAL FOOTHILLS

CITY           SKY/WX    TMP DP  RH WIND       PRES   REMARKS
CHARLOTTESVILL CLOUDY    45  38  76 CALM      30.22F
CULPEPER*      CLOUDY    43  43 100 CALM      30.24F

$$

VAZ055>057-190800-
NORTH AND CENTRAL PIEDMONT

CITY           SKY/WX    TMP DP  RH WIND       PRES   REMARKS
FREDERICKSBRG* CLOUDY    45  41  87 CALM      30.24F
STAFFORD*      CLOUDY    41  41 100 CALM      30.28F

$$

NCZ024-NYZ072-PAZ021-071-VAZ022-071-190800-
OTHER REGIONAL OBSERVATIONS

CITY           SKY/WX    TMP DP  RH WIND       PRES   REMARKS
NEW YORK CITY  CLOUDY    42  32  67 VRB5      30.26F
PHILADELPHIA   CLOUDY    43  36  76 SW7       30.27F
PITTSBURGH     MOCLDY    49  39  68 N5        30.25R
ROANOKE        CLOUDY    47  40  76 CALM      30.23F
RICHMOND       CLOUDY    46  41  82 E3        30.23F
RALEIGH        RAIN      48  45  89 NE9       30.19S FOG

$$

ANZ530>537-190800-
MARINE OBSERVATIONS

STATION/POSITION TIME  TEMP    WIND        PRES
                       AIR SEA DIR/SP/G
                 (UTC) (F)     (DEG/KT/KT) (MB)
THOMAS PT LIGHT  0700   48 52  250/  3/  4 1024.9F
BALT KEY BRIDGE  0700   47     200/  4/  5 1024.7S
COVE POINT       0700   46     210/  2/  3 1024.3F
LEWISETTA        0700   46 53  170/  2/  2 1024.0F
SOLOMONS ISLAND  0700      51                N/A
PINEY POINT      0700          190/  3/  4   N/A

$$




USA.gov is the U.S. government's official web portal to all federal, state and local government web resources and services.